Regional Weather Roundup
Issued by NWS

Home | Current Version | Previous Version | Graphics & Text | Print | Product List | Glossary On
Versions: 1 2 3 4 5 6 7 8 9 10 11 12 13 14 15 16 17 18 19 20 21 22 23 24 25 26 27 28 29 30 31 32 33 34 35 36 37 38 39 40 41 42 43 44 45 46 47 48 49 50
000
ASUS45 KTFX 251410
RWRMT
MONTANA REGIONAL WEATHER ROUNDUP
NATIONAL WEATHER SERVICE GREAT FALLS MT
800 AM MDT THU AUG 25 2016

NOTE: "FAIR" INDICATES FEW OR NO CLOUDS BELOW 12000 FEET WITH NO
SIGNIFICANT WEATHER AND/OR OBSTRUCTIONS TO VISIBILITY.

MTZ001>007-043-251500-
WEST OF THE DIVIDE

CITY           SKY/WX    TMP DP  RH WIND       PRES   REMARKS
KALISPELL      MOSUNNY   43  40  89 N7        30.27R
MISSOULA       SUNNY     46  38  73 N5        30.29R
BUTTE          SUNNY     33  28  81 SE5       30.33S
MULLAN PASS    SUNNY     47  30  51 SE6       30.30F
DEER LODGE       N/A     41  32  70 CALM      30.35S
EUREKA           N/A     39  34  81 CALM      30.29S
HAMILTON         N/A     46  36  66 CALM      30.29R
LIBBY            N/A     39  34  81 CALM      30.28R
PLAINS           N/A     42  37  82 CALM      30.24R
RONAN            N/A     46  41  83 CALM      30.27S
$$

MTZ008-052>055-251500-
SOUTHWEST MONTANA

CITY           SKY/WX    TMP DP  RH WIND       PRES   REMARKS
BOZEMAN        SUNNY     41  36  82 SE3       30.32R
DILLON         SUNNY     39  31  72 SW5       30.31R
W YELLOWSTONE  MOSUNNY   32  28  86 CALM      30.34F
ENNIS          SUNNY     36  30  80 CALM      30.36R
$$

MTZ009-010-012-014-046-048-049-054-251500-
EAST SLOPES AND CENTRAL MONTANA

CITY           SKY/WX    TMP DP  RH WIND       PRES   REMARKS
CUT BANK       PTSUNNY   42  35  76 W7        30.28R
GREAT FALLS    SUNNY     44  39  82 SW3       30.29S
MALMSTROM AFB  SUNNY     47  40  76 W2        30.29S
HELENA         SUNNY     46  36  68 CALM      30.31F
CHOTEAU          N/A     46  34  61 SW6       30.30S
CONRAD           N/A     42  42 100 CALM      30.26F
$$

MTZ011-013-016-021-045-047-050-051-251500-
NORTH CENTRAL MONTANA

CITY           SKY/WX    TMP DP  RH WIND       PRES   REMARKS
HAVRE          SUNNY     46  43  89 SW8       30.26S
LEWISTOWN      SUNNY     44  39  82 SE3       30.31R
N BAR RANCH      N/A     45  37  76 CALM      30.32S
CHINOOK          N/A     46  45  93 CALM      30.25F
$$

MTZ017>020-022>027-061-062-251500-
NORTHEAST MONTANA

CITY           SKY/WX    TMP DP  RH WIND       PRES   REMARKS
GLASGOW        CLOUDY    51  45  79 W7        30.22F
JORDAN           N/A     52  43  71 W7        30.26S
SIDNEY         SUNNY     57  47  69 NW12      30.21S
WOLF POINT     SUNNY     51  46  83 SW7       30.23S
POPLAR           N/A     52  46  82 W12       30.22F
SCOBEY           N/A     48  41  77 CALM      30.17
$$

MTZ028>42-056>058-251500-
SOUTHCENTRAL AND SOUTHEAST MONTANA

CITY           SKY/WX    TMP DP  RH WIND       PRES   REMARKS
BAKER          CLOUDY    52  43  71 W8        30.28R
BILLINGS       MOSUNNY   50  40  68 W3        30.29S
LIVINGSTON     SUNNY     39  35  86 W5        30.31S
MILES CITY     SUNNY     54  44  69 SW7       30.28R
EKALAKA          N/A     51  43  74 W6        30.23
FORSYTH          N/A     54  45  71 CALM      30.28S
LAUREL           N/A     45  39  79 CALM      30.25S
ROUNDUP          N/A     46  37  70 S3        30.19S
$$

REGIONAL REPORTS...DAKOTAS

CITY           SKY/WX    TMP DP  RH WIND       PRES   REMARKS
WILLISTON      SUNNY     57  47  69 W10       30.19S
MINOT          MOSUNNY   57  52  83 NW13      30.12R
DICKINSON      CLOUDY    50  47  89 NW16      30.20R
CROSBY           N/A     55  50  82 W10       30.18S
BISMARCK       CLOUDY    56  50  80 NW9       30.14R
GRAND FORKS    CLOUDY    59  56  89 NW15      29.96R FOG
FARGO          CLOUDY    61  52  72 W18       30.01R
BUFFALO SD       N/A     52  46  80 W16       30.20R
RAPID CITY     PTSUNNY   57  43  59 N7        30.27S
$$

REGIONAL REPORTS...WYOMING/IDAHO/WASHINGTON

CITY           SKY/WX    TMP DP  RH WIND       PRES   REMARKS
GILLETTE       MOSUNNY   50  41  71 N6        30.31S
SHERIDAN       SUNNY     50  42  74 CALM      30.32R
BUFFALO WY     CLOUDY    50  38  63 NW3       30.34R
CODY           SUNNY     48  43  81 CALM      30.32S
YELLOWSTONE LA   N/A     32  32 100 CALM      30.37F
IDAHO FALLS    MOSUNNY   46  36  68 N7        30.23S
SALMON         SUNNY     45  34  65 CALM      30.28S
BOISE          CLEAR     57  34  41 SE7       30.12R
SPOKANE        PTCLDY    57  41  55 NE7       30.19R
$$

REGIONAL REPORTS...ALBERTA

CITY           SKY/WX    TMP DP  RH WIND       PRES   REMARKS
EDMONTON       MOSUNNY   55  52  88 NW6       30.19R
CALGARY        PTSUNNY   54  48  82 N10       30.28R
LETHBRIDGE     PTSUNNY   46  41  81 W7        30.25R
MEDICINE HAT   CLOUDY    50  46  87 SW7       30.22S
MILK RIVER       N/A     43  37  81 NW10        N/A
$$

REGIONAL REPORTS...SASKATCHEWAN

CITY           SKY/WX    TMP DP  RH WIND       PRES   REMARKS
SWIFT CURRENT  SUNNY     52  48  87 W9        30.17S
REGINA         MOSUNNY   50  48  93 W6        30.15R
SASKATOON      MOSUNNY   52  50  93 SW5       30.13S
CYPRESS HILLS    N/A     52  43  71 NW6         N/A
VAL MARIE        N/A     50  45  81 W3          N/A
ROCKGLEN         N/A     52  46  82 W3          N/A
ASSINIBOIA       N/A     55  54  94 NW10        N/A
$$



USA.gov is the U.S. government's official web portal to all federal, state and local government web resources and services.